GW4609 Weather Reports


time (UTC)temp
C
wind
direction
speed
KPH
gust
KPH
rain 1hr
cm
rain 24hr
cm
rain mn
cm
humidity
%
barometer
mb
20260509201402 17 76 1.6 4.8 0.00 0.00 0.00 70 1006.8
20260509200859 17 93 1.6 4.8 0.00 0.00 0.00 71 1006.4
20260509200359 17 83 6.4 6.4 0.00 0.00 0.00 70 1006.4
20260509195856 17 75 1.6 4.8 0.00 0.00 0.00 70 1006.4
20260509195356 17 85 1.6 3.2 0.00 0.00 0.00 71 1006.5
20260509194851 17 93 1.6 3.2 0.00 0.00 0.00 70 1006.5
20260509194348 16 71 4.8 4.8 0.00 0.00 0.00 71 1006.5
20260509193844 16 121 4.8 6.4 0.00 0.00 0.00 70 1006.5
20260509193343 16 84 6.4 11.3 0.00 0.00 0.00 69 1006.4
20260509192840 17 86 9.7 11.3 0.00 0.00 0.00 69 1006.7
20260509192336 17 80 6.4 9.7 0.00 0.00 0.00 68 1006.6
20260509191831 18 87 4.8 6.4 0.00 0.00 0.00 63 1006.7
20260509191327 18 76 0.0 1.6 0.00 0.00 0.00 55 1006.6
20260509190823 18 84 1.6 3.2 0.00 0.00 0.00 56 1006.7
20260509190321 18 60 1.6 3.2 0.00 0.00 0.00 59 1006.6
20260509185818 18 236 0.0 1.6 0.00 0.00 0.00 58 1006.4
20260509185314 18 34 0.0 4.8 0.00 0.00 0.00 63 1006.6
20260509184812 18 68 6.4 9.7 0.00 0.00 0.00 63 1006.5
20260509184309 19 104 1.6 1.6 0.00 0.00 0.00 51 1006.6
20260509183805 19 19 0.0 0.0 0.00 0.00 0.00 50 1006.6
20260509183301 18 92 0.0 3.2 0.00 0.00 0.00 57 1006.8
20260509182756 18 79 1.6 3.2 0.00 0.00 0.00 56 1006.7
20260509182254 18 36 0.0 3.2 0.00 0.00 0.00 58 1006.8
20260509181751 18 72 1.6 3.2 0.00 0.00 0.00 59 1007.2
20260509181249 17 94 1.6 1.6 0.00 0.00 0.00 60 1007.0
20260509180745 17 89 0.0 1.6 0.00 0.00 0.00 58 1007.1
20260509180242 17 84 1.6 3.2 0.00 0.00 0.00 58 1007.0
20260509175738 17 95 1.6 1.6 0.00 0.00 0.00 60 1007.1
20260509175235 17 73 1.6 1.6 0.00 0.00 0.00 60 1007.1
20260509174731 17 65 3.2 3.2 0.00 0.00 0.00 60 1007.2
20260509174226 17 76 1.6 3.2 0.00 0.00 0.00 61 1007.0
20260509173722 17 83 3.2 3.2 0.00 0.00 0.00 62 1007.2
20260509173218 16 78 1.6 3.2 0.00 0.00 0.00 62 1007.1
20260509172714 17 70 3.2 3.2 0.00 0.00 0.00 63 1007.4
20260509172211 17 66 1.6 1.6 0.00 0.00 0.00 62 1007.4
20260509171707 16 74 1.6 3.2 0.00 0.00 0.00 63 1007.6
20260509171203 16 84 0.0 3.2 0.00 0.00 0.00 64 1007.8
20260509170700 16 57 1.6 1.6 0.00 0.00 0.00 64 1007.6
20260509170156 16 87 3.2 4.8 0.00 0.00 0.00 66 1007.6
20260509165654 16 83 0.0 3.2 0.00 0.00 0.00 69 1007.8
20260509165150 16 84 0.0 3.2 0.00 0.00 0.00 67 1007.9
20260509164646 16 90 0.0 0.0 0.00 0.00 0.00 71 1007.8
20260509164142 15 91 3.2 3.2 0.00 0.00 0.00 72 1007.9
20260509163640 15 82 0.0 1.6 0.00 0.00 0.00 70 1007.8
20260509163135 15 82 3.2 3.2 0.00 0.00 0.00 71 1008.0
20260509162633 15 83 3.2 3.2 0.00 0.00 0.00 70 1007.9
20260509162128 15 85 1.6 3.2 0.00 0.00 0.00 72 1008.0
20260509161625 15 85 0.0 1.6 0.00 0.00 0.00 70 1008.3
20260509161120 15 85 1.6 3.2 0.00 0.00 0.00 75 1008.2
20260509160616 15 102 1.6 3.2 0.00 0.00 0.00 73 1008.4
20260509160111 15 323 0.0 1.6 0.00 0.00 0.00 73 1008.3
20260509155608 15 74 0.0 1.6 0.00 0.00 0.00 73 1008.7
20260509155104 15 51 1.6 3.2 0.00 0.00 0.00 74 1008.3
20260509154600 15 272 0.0 1.6 0.00 0.00 0.00 73 1008.4
20260509154058 15 67 3.2 3.2 0.00 0.00 0.00 74 1008.4
20260509153555 15 63 1.6 3.2 0.00 0.00 0.00 73 1008.6
20260509153051 15 40 1.6 1.6 0.00 0.00 0.00 72 1008.5
20260509152547 15 55 0.0 1.6 0.00 0.00 0.00 73 1008.4
20260509152045 15 85 0.0 1.6 0.00 0.00 0.00 72 1008.5
20260509151541 15 85 0.0 0.0 0.00 0.00 0.00 71 1008.4
20260509151039 15 85 0.0 1.6 0.00 0.00 0.00 74 1008.5
20260509150536 15 85 0.0 1.6 0.00 0.00 0.00 74 1008.6
20260509150035 14 85 1.6 3.2 0.00 0.00 0.00 75 1008.3
20260509145530 15 59 0.0 3.2 0.00 0.00 0.00 75 1008.6
20260509145025 14 295 0.0 3.2 0.00 0.00 0.00 76 1008.6
20260509144522 14 89 4.8 4.8 0.00 0.00 0.00 76 1008.6
20260509144019 14 102 0.0 3.2 0.00 0.00 0.00 76 1008.7
20260509143516 14 78 3.2 4.8 0.00 0.00 0.00 77 1008.7
20260509143014 14 53 0.0 1.6 0.00 0.00 0.00 79 1008.4
20260509142509 13 81 0.0 1.6 0.00 0.00 0.00 80 1008.5
20260509142005 13 80 1.6 1.6 0.00 0.00 0.00 82 1008.5
20260509141502 13 64 0.0 3.2 0.00 0.00 0.00 83 1008.6
20260509140959 13 81 1.6 3.2 0.00 0.00 0.00 83 1008.7
20260509140455 12 285 0.0 1.6 0.00 0.00 0.00 84 1008.7
20260509135953 12 6 0.0 1.6 0.00 0.00 0.00 86 1008.7
20260509135450 12 70 1.6 1.6 0.00 0.00 0.00 86 1008.7
20260509134947 12 96 3.2 3.2 0.00 0.00 0.00 86 1008.8
20260509134445 12 75 1.6 1.6 0.00 0.00 0.00 87 1008.9
20260509133942 12 67 0.0 0.0 0.00 0.00 0.00 84 1009.0
20260509133439 12 301 1.6 1.6 0.00 0.00 0.00 85 1008.8
20260509132937 12 330 0.0 0.0 0.00 0.00 0.00 87 1008.8
20260509132435 12 304 0.0 0.0 0.00 0.00 0.00 85 1008.9
20260509131932 11 327 0.0 1.6 0.00 0.00 0.00 86 1008.7
20260509131429 11 288 0.0 1.6 0.00 0.00 0.00 86 1008.8
20260509130925 11 295 0.0 1.6 0.00 0.00 0.00 86 1008.6
20260509130420 11 278 0.0 0.0 0.00 0.00 0.00 86 1008.7
20260509125918 11 339 0.0 0.0 0.00 0.00 0.00 87 1008.6
20260509125415 11 67 1.6 3.2 0.00 0.00 0.00 88 1008.4
20260509124910 11 35 0.0 1.6 0.00 0.00 0.00 86 1008.4
20260509124408 11 291 0.0 0.0 0.00 0.00 0.00 84 1008.7
20260509123905 11 292 0.0 1.6 0.00 0.00 0.00 84 1008.7
20260509123402 11 13 0.0 0.0 0.00 0.00 0.00 84 1008.7
20260509122858 11 87 0.0 0.0 0.00 0.00 0.00 85 1008.7
20260509122355 11 87 0.0 0.0 0.00 0.00 0.00 85 1008.5
20260509121852 11 87 0.0 0.0 0.00 0.00 0.00 86 1008.8
20260509121349 11 87 0.0 0.0 0.00 0.00 0.00 85 1008.8
20260509120847 11 87 0.0 0.0 0.00 0.00 0.00 85 1008.6
20260509120344 10 87 0.0 0.0 0.00 0.00 0.00 85 1008.6
20260509115842 10 87 0.0 0.0 0.00 0.00 0.00 85 1008.8
20260509115339 10 87 0.0 0.0 0.00 0.00 0.00 86 1008.8
20260509114837 10 87 0.0 0.0 0.00 0.00 0.00 86 1008.7
20260509114336 10 64 1.6 1.6 0.00 0.00 0.00 87 1008.6
20260509113835 10 307 0.0 1.6 0.00 0.00 0.00 86 1008.6
20260509113331 10 78 0.0 0.0 0.00 0.00 0.00 86 1008.5
20260509112828 10 19 0.0 0.0 0.00 0.00 0.00 86 1008.5
20260509112325 10 312 0.0 0.0 0.00 0.00 0.00 86 1008.7
20260509111822 10 79 0.0 1.6 0.00 0.00 0.00 85 1008.7
20260509111319 10 328 0.0 1.6 0.00 0.00 0.00 86 1008.5
20260509110817 10 301 0.0 1.6 0.00 0.00 0.00 86 1008.4
20260509110313 10 290 0.0 0.0 0.00 0.00 0.00 86 1008.5
20260509105811 10 37 0.0 0.0 0.00 0.00 0.00 87 1008.4
20260509105309 10 74 0.0 0.0 0.00 0.00 0.00 86 1008.4
20260509104805 10 223 0.0 0.0 0.00 0.00 0.00 86 1008.3
20260509104302 10 231 0.0 0.0 0.00 0.00 0.00 87 1008.4
20260509103800 10 224 0.0 1.6 0.00 0.00 0.00 88 1008.3
20260509103257 9 310 1.6 1.6 0.00 0.00 0.00 89 1008.2
20260509102755 10 89 1.6 3.2 0.00 0.00 0.00 88 1008.3
20260509102252 10 70 3.2 3.2 0.00 0.00 0.00 87 1008.1
20260509101748 10 234 0.0 0.0 0.00 0.00 0.00 87 1008.0
20260509101244 10 234 0.0 0.0 0.00 0.00 0.00 87 1007.9
20260509100742 10 234 0.0 0.0 0.00 0.00 0.00 87 1008.0
20260509100240 10 234 0.0 0.0 0.00 0.00 0.00 86 1007.8
20260509095736 10 234 0.0 0.0 0.00 0.00 0.00 86 1008.0
20260509095233 10 234 0.0 0.0 0.00 0.00 0.00 86 1008.1
20260509094730 10 235 0.0 0.0 0.00 0.00 0.00 86 1008.1
20260509094227 10 235 0.0 0.0 0.00 0.00 0.00 85 1008.1
20260509093725 10 241 0.0 1.6 0.00 0.00 0.00 86 1008.1
20260509093222 10 241 0.0 0.0 0.00 0.00 0.00 84 1008.2
20260509092720 10 266 0.0 0.0 0.00 0.00 0.00 86 1008.1
20260509092218 10 271 1.6 1.6 0.00 0.00 0.00 86 1008.5
20260509091716 10 288 0.0 0.0 0.00 0.00 0.00 86 1008.3
20260509091211 10 328 0.0 0.0 0.00 0.00 0.00 85 1008.4
20260509090709 9 1 0.0 0.0 0.00 0.00 0.00 85 1008.0
20260509090206 9 328 0.0 0.0 0.00 0.00 0.00 86 1008.0
20260509085704 9 339 0.0 0.0 0.00 0.00 0.00 86 1008.2
20260509085200 9 280 0.0 1.6 0.00 0.00 0.00 87 1008.2
20260509084657 9 4 0.0 0.0 0.00 0.00 0.00 86 1008.0
20260509084154 9 288 0.0 0.0 0.00 0.00 0.00 87 1008.1
20260509083652 9 288 0.0 0.0 0.00 0.00 0.00 86 1008.3
20260509083148 9 300 0.0 0.0 0.00 0.00 0.00 87 1008.1
20260509082645 9 8 0.0 0.0 0.00 0.00 0.00 87 1007.8
20260509082142 9 7 0.0 0.0 0.00 0.00 0.00 87 1007.9
20260509081639 9 282 0.0 1.6 0.00 0.00 0.00 87 1007.9
20260509081136 9 41 0.0 0.0 0.00 0.00 0.00 87 1008.0
20260509080634 9 359 0.0 0.0 0.00 0.00 0.00 87 1007.9
20260509080132 9 342 0.0 0.0 0.00 0.00 0.00 87 1008.1
20260509075630 9 49 0.0 0.0 0.00 0.00 0.00 86 1008.0
20260509075128 9 35 0.0 0.0 0.00 0.00 0.00 86 1008.2
20260509074624 9 354 0.0 0.0 0.00 0.00 0.00 86 1008.1
20260509074120 9 36 0.0 0.0 0.00 0.00 0.00 86 1008.0
20260509073617 9 29 0.0 0.0 0.00 0.00 0.00 86 1007.9
20260509073114 9 29 0.0 0.0 0.00 0.00 0.00 86 1008.3
20260509072611 9 29 0.0 0.0 0.00 0.00 0.00 86 1008.2
20260509072107 9 30 0.0 0.0 0.00 0.00 0.00 86 1008.3
20260509071604 9 48 0.0 0.0 0.00 0.00 0.00 85 1008.3
20260509071101 9 48 0.0 0.0 0.00 0.00 0.00 85 1008.1
20260509070559 9 6 0.0 0.0 0.00 0.00 0.00 86 1008.2
20260509070054 9 6 0.0 0.0 0.00 0.00 0.00 86 1008.2
20260509065550 9 6 0.0 0.0 0.00 0.00 0.00 85 1008.1
20260509065046 9 312 0.0 0.0 0.00 0.00 0.00 84 1008.0
20260509064544 9 313 0.0 0.0 0.00 0.00 0.00 83 1008.1
20260509064042 9 285 0.0 0.0 0.00 0.00 0.00 83 1008.0
20260509063537 9 285 0.0 0.0 0.00 0.00 0.00 82 1008.2
20260509063035 9 285 0.0 0.0 0.00 0.00 0.00 82 1008.3
20260509062532 10 285 0.0 0.0 0.00 0.00 0.00 82 1008.2
20260509062030 10 285 0.0 0.0 0.00 0.00 0.00 80 1008.2
20260509061526 10 300 0.0 0.0 0.00 0.00 0.00 81 1008.6
20260509061024 10 311 0.0 0.0 0.00 0.00 0.00 82 1008.3
20260509060521 10 310 0.0 0.0 0.00 0.00 0.00 82 1008.5
20260509060017 11 310 0.0 0.0 0.00 0.00 0.00 82 1008.3
20260509055512 11 310 0.0 0.0 0.00 0.00 0.00 81 1008.5
20260509055009 11 310 0.0 0.0 0.00 0.00 0.00 80 1008.6
20260509054505 11 317 0.0 0.0 0.00 0.00 0.00 80 1008.4
20260509054003 11 334 0.0 0.0 0.00 0.00 0.00 80 1008.4
20260509053501 11 27 0.0 0.0 0.00 0.00 0.00 80 1008.5
20260509052958 11 27 0.0 0.0 0.00 0.00 0.00 80 1008.8
20260509052455 11 27 0.0 0.0 0.00 0.00 0.00 80 1008.8
20260509051953 11 27 0.0 0.0 0.00 0.00 0.00 80 1008.8
20260509051451 11 27 0.0 0.0 0.00 0.00 0.00 79 1008.6
20260509050948 11 27 0.0 0.0 0.00 0.00 0.00 78 1009.1
20260509050444 11 319 0.0 0.0 0.00 0.00 0.00 77 1008.7
20260509045941 11 319 0.0 0.0 0.00 0.00 0.00 77 1008.8
20260509045438 11 319 0.0 0.0 0.00 0.00 0.00 77 1009.0
20260509044935 11 319 0.0 0.0 0.00 0.00 0.00 78 1008.8
20260509044433 11 319 0.0 0.0 0.00 0.00 0.00 79 1008.7
20260509043930 11 320 0.0 0.0 0.00 0.00 0.00 78 1008.7
20260509043426 11 320 0.0 0.0 0.00 0.00 0.00 77 1008.7
20260509042921 11 320 0.0 0.0 0.00 0.00 0.00 76 1009.0
20260509042419 11 319 0.0 0.0 0.00 0.00 0.00 77 1009.1
20260509041914 11 324 0.0 0.0 0.00 0.00 0.00 78 1008.9
20260509041412 12 293 1.6 1.6 0.00 0.00 0.00 79 1009.0
20260509040910 11 349 0.0 0.0 0.00 0.00 0.00 76 1008.9
20260509040408 11 349 0.0 0.0 0.00 0.00 0.00 77 1008.9
20260509035904 12 349 0.0 0.0 0.00 0.00 0.00 78 1009.0
20260509035401 12 350 0.0 0.0 0.00 0.00 0.00 78 1008.8
20260509034857 12 351 0.0 0.0 0.00 0.00 0.00 78 1008.8
20260509034355 12 319 0.0 1.6 0.00 0.00 0.00 78 1009.0
20260509033852 12 320 0.0 0.0 0.00 0.00 0.00 77 1008.8
20260509033349 12 302 0.0 1.6 0.00 0.00 0.00 78 1009.0
20260509032846 12 324 0.0 0.0 0.00 0.00 0.00 73 1008.8
20260509032343 12 328 0.0 0.0 0.00 0.00 0.00 76 1008.9
20260509031841 12 52 0.0 0.0 0.00 0.00 0.00 74 1008.8
20260509031338 12 304 0.0 0.0 0.00 0.00 0.00 72 1008.6
20260509030836 12 282 0.0 0.0 0.00 0.00 0.00 73 1008.9
20260509030333 12 298 0.0 0.0 0.00 0.00 0.00 74 1008.9
20260509025830 12 297 0.0 0.0 0.00 0.00 0.00 73 1008.7
20260509025325 12 62 0.0 0.0 0.00 0.00 0.00 72 1008.9
20260509024821 12 62 0.0 0.0 0.00 0.00 0.00 72 1009.0
20260509024318 12 62 0.0 0.0 0.00 0.00 0.00 72 1009.1
20260509023815 12 281 0.0 0.0 0.00 0.00 0.00 69 1008.9
20260509023312 12 303 1.6 1.6 0.00 0.00 0.00 67 1008.9
20260509022808 12 278 0.0 1.6 0.00 0.00 0.00 71 1008.9
20260509022307 12 1 0.0 0.0 0.00 0.00 0.00 70 1008.8
20260509021802 12 37 0.0 0.0 0.00 0.00 0.00 71 1008.9
20260509021300 12 298 0.0 0.0 0.00 0.00 0.00 71 1008.8
20260509020757 12 297 0.0 0.0 0.00 0.00 0.00 70 1009.0
20260509020255 12 302 0.0 0.0 0.00 0.00 0.00 69 1009.0
20260509015752 12 301 0.0 0.0 0.00 0.00 0.00 70 1008.8
20260509015251 13 304 0.0 0.0 0.00 0.00 0.00 71 1008.9
20260509014746 12 293 0.0 1.6 0.00 0.00 0.00 69 1008.8
20260509014244 13 45 0.0 1.6 0.00 0.00 0.00 70 1008.9
20260509013740 13 296 0.0 0.0 0.00 0.00 0.00 68 1008.7
20260509013236 13 304 0.0 1.6 0.00 0.00 0.00 67 1008.6
20260509012733 13 324 0.0 0.0 0.00 0.00 0.00 67 1008.7
20260509012229 13 50 0.0 0.0 0.00 0.00 0.00 68 1008.7
20260509011727 13 0 0.0 0.0 0.00 0.00 0.00 66 1008.7
20260509011225 13 263 0.0 1.6 0.00 0.00 0.00 65 1008.7
20260509010722 13 260 0.0 1.6 0.00 0.00 0.00 64 1008.4
20260509010218 13 315 0.0 0.0 0.00 0.00 0.00 66 1008.5
20260509005716 13 341 0.0 0.0 0.00 0.00 0.00 65 1008.5
20260509005214 13 295 0.0 0.0 0.00 0.00 0.00 67 1008.4
20260509004713 13 310 0.0 1.6 0.00 0.00 0.00 66 1008.3
20260509004212 13 307 0.0 0.0 0.00 0.00 0.00 67 1008.5
20260509003709 13 289 0.0 0.0 0.00 0.00 0.00 66 1008.4
20260509003207 13 248 0.0 1.6 0.00 0.00 0.00 64 1008.5
20260509002704 14 268 1.6 1.6 0.00 0.00 0.00 62 1008.5
20260509002201 13 260 0.0 1.6 0.00 0.00 0.00 61 1008.6
20260509001659 14 293 1.6 1.6 0.00 0.00 0.00 62 1008.4
20260509001154 15 300 0.0 1.6 0.00 0.00 0.00 58 1008.5
20260509000653 15 302 0.0 1.6 0.00 0.00 0.00 56 1008.3
20260509000149 15 255 1.6 1.6 0.00 0.00 0.00 56 1008.3
20260508235647 15 251 3.2 3.2 0.00 0.00 0.00 55 1008.1
20260508235143 16 241 1.6 1.6 0.00 0.00 0.00 54 1008.3
20260508234640 16 295 1.6 1.6 0.00 0.00 0.00 53 1008.3
20260508234137 17 272 0.0 1.6 0.00 0.00 0.00 51 1008.5
20260508233636 17 300 1.6 1.6 0.00 0.00 0.00 48 1008.2
20260508233133 18 293 0.0 3.2 0.00 0.00 0.00 46 1008.3
20260508232631 19 131 0.0 4.8 0.00 0.00 0.00 37 1008.2
20260508232128 20 315 1.6 3.2 0.00 0.00 0.00 37 1008.0
20260508231625 20 305 3.2 11.3 0.00 0.00 0.00 35 1008.0
20260508231122 20 262 0.0 1.6 0.00 0.00 0.00 35 1008.0
20260508230618 20 336 3.2 9.7 0.00 0.00 0.00 34 1008.1
20260508230115 21 246 6.4 6.4 0.00 0.00 0.00 36 1008.3
20260508225613 21 315 0.0 4.8 0.00 0.00 0.00 35 1008.0
20260508225108 21 321 1.6 3.2 0.00 0.00 0.00 34 1008.2
20260508224607 21 61 1.6 4.8 0.00 0.00 0.00 34 1008.1
20260508224104 21 79 3.2 6.4 0.00 0.00 0.00 32 1008.2
20260508223602 21 322 3.2 11.3 0.00 0.00 0.00 33 1008.3
20260508223059 21 198 4.8 11.3 0.00 0.00 0.00 33 1008.1
20260508222556 21 262 4.8 6.4 0.00 0.00 0.00 32 1008.1
20260508222053 21 61 1.6 4.8 0.00 0.00 0.00 34 1008.1
20260508221549 21 73 3.2 4.8 0.00 0.00 0.00 32 1008.1
20260508221044 21 310 1.6 9.7 0.00 0.00 0.00 33 1008.2
20260508220542 21 25 4.8 6.4 0.00 0.00 0.00 32 1008.2
20260508220038 21 6 3.2 9.7 0.00 0.00 0.00 34 1008.4
20260508215535 21 290 0.0 4.8 0.00 0.00 0.00 32 1008.2
20260508215032 21 150 3.2 6.4 0.00 0.00 0.00 31 1008.4
20260508214529 21 246 1.6 4.8 0.00 0.00 0.00 35 1008.5
20260508214025 22 359 1.6 6.4 0.00 0.00 0.00 34 1008.4
20260508213523 21 318 3.2 12.9 0.00 0.00 0.00 35 1008.8
20260508213018 21 56 6.4 11.3 0.00 0.00 0.00 33 1008.5
20260508212515 21 318 4.8 12.9 0.00 0.00 0.00 35 1008.8
20260508212012 20 293 4.8 9.7 0.00 0.00 0.00 35 1008.7
20260508211507 21 16 3.2 16.1 0.00 0.00 0.00 34 1008.4
20260508211004 21 260 3.2 12.9 0.00 0.00 0.00 34 1008.8
20260508210500 22 101 3.2 9.7 0.00 0.00 0.00 33 1008.8
20260508205957 21 71 11.3 16.1 0.00 0.00 0.00 34 1008.7
20260508205454 21 76 6.4 9.7 0.00 0.00 0.00 35 1008.7
20260508204950 21 71 3.2 9.7 0.00 0.00 0.00 35 1008.7
20260508204448 21 111 3.2 12.9 0.00 0.00 0.00 32 1008.9
20260508203943 20 305 1.6 6.4 0.00 0.00 0.00 34 1008.9
20260508203440 20 60 1.6 3.2 0.00 0.00 0.00 37 1009.0
20260508202935 20 171 1.6 6.4 0.00 0.00 0.00 35 1009.0
20260508202433 21 72 6.4 12.9 0.00 0.00 0.00 33 1009.0
20260508201930 21 354 3.2 12.9 0.00 0.00 0.00 32 1009.1